SBSPSBKP

Guest
Details From SBSP - Sao Paulo Congonhas
To SBKP - Sao Paulo Viracopos
Flight Number -
Tags generated
Created
Modified
Stats Distance 46 nm / 85 km
Max Altitude 0 ft / 0 m
Waypoints 3
Social Downloads 0
Likes 0
Share VATSIM

Download

Looking for another format? Having issues loading an existing format? Contact us
Advertisement - Login to hide

Notes

Basic altitude profile: - Ascent Rate: 2500ft/min - Ascent Speed: 250kts - Cruise Altitude: 10000ft - Cruise Speed: 255kts - Descent Rate: 1500ft/min - Descent Speed: 250kts Options: - Use NATs: yes - Use PACOTS: yes - Use low airways: yes - Use high airways: yes

Route

SBSP CPN SBKP

ID Type Via Altitude Latitude Longitude Leg Dist Tot Dist Heading (true) Name
O SBSP APT - 0 ft / 0 m -23.62669˚ -46.65538˚ - 0 nm - Sao Paulo Congonhas
CPN VOR - 0 ft / 0 m -23.00871˚ -47.12904˚ 45 nm 45 nm 325° / 325° CAMPINAS VOR-DME
O SBKP APT - 0 ft / 0 m -23.00738˚ -47.13452˚ 0 nm 45 nm 285° / 285° Sao Paulo Viracopos

Altitude Profile

Advertisement - Login to hide

SBSP

Details ICAO SBSP (CGH)
Name Sao Paulo Congonhas
Region Brazil
Timezone America/Sao_Paulo (UTC-3.0)
Stats Elevation 2,631 ft / 802 m (AMSL)
Location -23.626693° -46.655377°
Runways 2
Magnetic Variation 21.368° W

METAR

SBSP 230700Z AUTO 07008KT 040V100 7000 OVC006 16/14 Q1024

Decode

TAF

TAF SBSP 230230Z 2306/2406 14005KT 9999 SCT005 BKN008TN14/2308Z TX26/2317Z BECMG 2309/2311 09005KT CAVOK BECMG 2315/2317 16008KT SCT020 BECMG 2319/2321 BKN010 BECMG 2400/2402 00000KT CAVOK RMK PGG

Decode

Departure Runways

ID Width Length Bearing (true) Bearing (mag) Surface Threshold Offset Overrun Length
17L 147 ft / 45 m 4,726 ft / 1,441 m 147.28° 168.65° Asphalt 0 ft / 0 m 220 ft / 67 m
17R 147 ft / 45 m 6,406 ft / 1,953 m 147.39° 168.76° Asphalt 413 ft / 126 m 0 ft / 0 m
35L 147 ft / 45 m 6,406 ft / 1,953 m 327.38° 348.75° Asphalt 200 ft / 61 m 0 ft / 0 m
35R 147 ft / 45 m 4,726 ft / 1,441 m 327.28° 348.65° Asphalt 0 ft / 0 m 0 ft / 0 m

SBKP

Details ICAO SBKP (VCP)
Name Sao Paulo Viracopos
Region Brazil
Timezone America/Sao_Paulo (UTC-3.0)
Stats Elevation 2,170 ft / 661 m (AMSL)
Location -23.007383° -47.134522°
Runways 1
Magnetic Variation 21.269° W

METAR

SBKP 230700Z 12007KT CAVOK 16/13 Q1022

Decode

TAF

TAF SBKP 230230Z 2306/2406 13010KT CAVOK TN14/2309Z TX28/2317Z BECMG 2312/2314 06005KT BECMG 2318/2320 14005KT RMK PGG

Decode

Destination Runways

ID Width Length Bearing (true) Bearing (mag) Surface Threshold Offset Overrun Length
15 148 ft / 45 m 10,639 ft / 3,243 m 127.91° 149.18° Asphalt 0 ft / 0 m 205 ft / 62 m
33 148 ft / 45 m 10,639 ft / 3,243 m 307.90° 329.17° Asphalt 0 ft / 0 m 205 ft / 62 m

Approach Navaids

Runway Type Ident Frequency Range Bearing (true) Bearing (mag) Slope Elevation
15 Localiser IKP 110.30 MHz 18 nm / 33 km 127.95° 149.22° - 2,170 ft / 661 m (AMSL)
15 Glidescope IKP 110.30 MHz 10 nm / 19 km 127.90° 149.17° 3.00° 2,170 ft / 661 m (AMSL)

Popular Alternatives